TimeCST,TemperatureF,Dew PointF,Humidity,Sea Level PressureIn,VisibilityMPH,Wind Direction,Wind SpeedMPH,Gust SpeedMPH,PrecipitationIn,Events,Conditions,WindDirDegrees,DateUTC
12:15 AM,28.4,26.6,93,30.22,10.0,Calm,Calm,-,N/A,,Clear,0,2013-01-08 06:15:00
12:35 AM,28.4,26.6,93,30.21,10.0,Calm,Calm,-,N/A,,Clear,0,2013-01-08 06:35:00
12:55 AM,28.4,26.6,93,30.22,10.0,Calm,Calm,-,N/A,,Clear,0,2013-01-08 06:55:00
1:15 AM,28.4,26.6,93,30.22,8.0,Calm,Calm,-,N/A,,Clear,0,2013-01-08 07:15:00
1:35 AM,26.6,26.6,100,30.23,9.0,Calm,Calm,-,N/A,,Clear,0,2013-01-08 07:35:00
1:55 AM,26.6,26.6,100,30.22,8.0,Calm,Calm,-,N/A,,Clear,0,2013-01-08 07:55:00
2:15 AM,26.6,24.8,93,30.21,9.0,Calm,Calm,-,N/A,,Clear,0,2013-01-08 08:15:00
2:35 AM,26.6,26.6,100,30.21,7.0,Calm,Calm,-,N/A,,Clear,0,2013-01-08 08:35:00
2:55 AM,26.6,24.8,93,30.22,8.0,Calm,Calm,-,N/A,,Clear,0,2013-01-08 08:55:00
3:15 AM,26.6,26.6,100,30.21,8.0,Calm,Calm,-,N/A,,Clear,0,2013-01-08 09:15:00
3:35 AM,28.4,26.6,93,30.21,9.0,Calm,Calm,-,N/A,,Clear,0,2013-01-08 09:35:00
3:55 AM,28.4,26.6,93,30.21,8.0,Calm,Calm,-,N/A,,Clear,0,2013-01-08 09:55:00
4:15 AM,28.4,26.6,93,30.20,9.0,Calm,Calm,-,N/A,,Clear,0,2013-01-08 10:15:00
4:35 AM,28.4,26.6,93,30.20,9.0,Calm,Calm,-,N/A,,Clear,0,2013-01-08 10:35:00
4:55 AM,28.4,26.6,93,30.20,9.0,Calm,Calm,-,N/A,,Clear,0,2013-01-08 10:55:00
5:15 AM,26.6,26.6,100,30.20,9.0,Calm,Calm,-,N/A,,Clear,0,2013-01-08 11:15:00
5:35 AM,26.6,26.6,100,30.20,9.0,Calm,Calm,-,N/A,,Clear,0,2013-01-08 11:35:00
5:55 AM,26.6,26.6,100,30.21,9.0,Calm,Calm,-,N/A,,Clear,0,2013-01-08 11:55:00
6:15 AM,26.6,24.8,93,30.21,10.0,Calm,Calm,-,N/A,,Clear,0,2013-01-08 12:15:00
6:55 AM,28.4,26.6,93,30.22,9.0,Calm,Calm,-,N/A,,Overcast,0,2013-01-08 12:55:00
7:15 AM,28.4,26.6,93,30.23,8.0,Calm,Calm,-,N/A,,Mostly Cloudy,0,2013-01-08 13:15:00
7:35 AM,28.4,26.6,93,30.24,9.0,Calm,Calm,-,N/A,,Mostly Cloudy,0,2013-01-08 13:35:00
7:55 AM,28.4,26.6,93,30.24,9.0,Calm,Calm,-,N/A,,Mostly Cloudy,0,2013-01-08 13:55:00
8:15 AM,28.4,26.6,93,30.25,7.0,Calm,Calm,-,N/A,,Partly Cloudy,0,2013-01-08 14:15:00
8:35 AM,28.4,28.4,100,30.25,7.0,Calm,Calm,-,N/A,,Partly Cloudy,0,2013-01-08 14:35:00
9:15 AM,32.0,28.4,87,30.26,9.0,Calm,Calm,-,N/A,,Clear,0,2013-01-08 15:15:00
9:35 AM,32.0,28.4,87,30.26,10.0,Calm,Calm,-,N/A,,Clear,0,2013-01-08 15:35:00
9:55 AM,33.8,30.2,87,30.26,10.0,Calm,Calm,-,N/A,,Clear,0,2013-01-08 15:55:00
10:15 AM,37.4,30.2,75,30.25,10.0,Calm,Calm,-,N/A,,Partly Cloudy,0,2013-01-08 16:15:00
10:35 AM,39.2,32.0,75,30.24,10.0,Calm,Calm,-,N/A,,Mostly Cloudy,0,2013-01-08 16:35:00
11:15 AM,46.4,32.0,57,30.22,10.0,Calm,Calm,-,N/A,,Mostly Cloudy,0,2013-01-08 17:15:00
11:35 AM,48.2,32.0,54,30.22,10.0,Calm,Calm,-,N/A,,Scattered Clouds,0,2013-01-08 17:35:00
11:55 AM,48.2,32.0,54,30.19,10.0,Calm,Calm,-,N/A,,Partly Cloudy,0,2013-01-08 17:55:00
12:35 PM,51.8,32.0,47,30.16,10.0,Calm,Calm,-,N/A,,Clear,0,2013-01-08 18:35:00
1:15 PM,53.6,33.8,47,30.15,10.0,Calm,Calm,-,N/A,,Mostly Cloudy,0,2013-01-08 19:15:00
1:35 PM,53.6,33.8,47,30.14,10.0,Calm,Calm,-,N/A,,Mostly Cloudy,0,2013-01-08 19:35:00
1:55 PM,55.4,35.6,47,30.15,10.0,South,8.1,-,N/A,,Mostly Cloudy,190,2013-01-08 19:55:00
2:15 PM,53.6,35.6,51,30.13,10.0,Calm,Calm,-,N/A,,Mostly Cloudy,0,2013-01-08 20:15:00
2:35 PM,55.4,35.6,47,30.13,10.0,Calm,Calm,-,N/A,,Overcast,0,2013-01-08 20:35:00
2:55 PM,55.4,35.6,47,30.13,10.0,Calm,Calm,-,N/A,,Mostly Cloudy,0,2013-01-08 20:55:00
3:15 PM,55.4,35.6,47,30.15,10.0,Calm,Calm,-,N/A,,Mostly Cloudy,0,2013-01-08 21:15:00
3:35 PM,55.4,35.6,47,30.14,10.0,Calm,Calm,-,N/A,,Overcast,0,2013-01-08 21:35:00
4:15 PM,53.6,35.6,51,30.16,10.0,Calm,Calm,-,N/A,,Overcast,0,2013-01-08 22:15:00
4:35 PM,53.6,35.6,51,30.16,10.0,Calm,Calm,-,N/A,,Overcast,0,2013-01-08 22:35:00
4:55 PM,53.6,37.4,54,30.15,10.0,Calm,Calm,-,N/A,,Overcast,0,2013-01-08 22:55:00
5:15 PM,53.6,37.4,54,30.16,10.0,Calm,Calm,-,N/A,,Overcast,0,2013-01-08 23:15:00
5:35 PM,51.8,37.4,58,30.14,10.0,Calm,Calm,-,N/A,,Overcast,0,2013-01-08 23:35:00
6:15 PM,50.0,39.2,66,30.14,10.0,Calm,Calm,-,N/A,,Mostly Cloudy,0,2013-01-09 00:15:00
6:35 PM,50.0,37.4,62,30.14,10.0,Calm,Calm,-,N/A,,Scattered Clouds,0,2013-01-09 00:35:00
7:35 PM,48.2,39.2,71,30.16,10.0,Calm,Calm,-,N/A,,Overcast,0,2013-01-09 01:35:00
7:55 PM,46.4,41.0,81,30.17,10.0,Calm,Calm,-,N/A,,Overcast,0,2013-01-09 01:55:00
8:15 PM,46.4,39.2,76,30.18,9.0,Calm,Calm,-,N/A,Rain,Light Rain,0,2013-01-09 02:15:00
8:35 PM,46.4,42.8,87,30.19,5.0,Calm,Calm,-,N/A,Rain,Light Rain,0,2013-01-09 02:35:00
8:55 PM,44.6,42.8,93,30.19,5.0,Calm,Calm,-,0.02,Rain,Light Rain,0,2013-01-09 02:55:00
9:15 PM,44.6,44.6,100,30.19,5.0,Calm,Calm,-,0.01,Rain,Light Rain,0,2013-01-09 03:15:00
9:35 PM,44.6,44.6,100,30.19,3.0,Calm,Calm,-,0.01,Rain,Light Rain,0,2013-01-09 03:35:00
9:55 PM,44.6,44.6,100,30.19,5.0,Calm,Calm,-,0.02,Rain,Light Rain,0,2013-01-09 03:55:00
10:15 PM,44.6,44.6,100,30.19,3.0,Calm,Calm,-,N/A,Rain,Light Rain,0,2013-01-09 04:15:00
10:35 PM,44.6,44.6,100,30.20,1.5,Calm,Calm,-,0.01,Rain,Light Rain,0,2013-01-09 04:35:00
10:55 PM,46.4,44.6,93,30.21,2.5,Calm,Calm,-,0.02,Rain,Light Rain,0,2013-01-09 04:55:00
11:15 PM,46.4,44.6,93,30.22,3.0,Calm,Calm,-,0.01,Rain,Light Rain,0,2013-01-09 05:15:00
11:35 PM,44.6,44.6,100,30.23,2.5,Calm,Calm,-,0.02,Rain,Light Rain,0,2013-01-09 05:35:00
11:55 PM,44.6,44.6,100,30.23,1.5,Calm,Calm,-,0.03,Rain,Light Rain,0,2013-01-09 05:55:00